CW5183 Weather Reports


Display with metric or nautical units.
time (UTC)temp
F
wind
direction
speed
MPH
gust
MPH
rain 1hr
in
rain 24hr
in
rain mn
in
humidity
%
barometer
mb
20260505014544 65 234 7.0 17.0 0.00 0.15 0.15 72 1000.1
20260505013046 65 186 7.0 17.0 0.00 0.15 0.15 74 999.7
20260505011544 64 196 5.0 12.0 0.00 0.15 0.15 77 999.6
20260505010104 64 201 3.0 7.0 0.00 0.15 0.15 78 998.8
20260505004545 63 215 4.0 12.0 0.06 0.15 0.15 79 999.0
20260505003048 63 194 7.0 13.0 0.14 0.15 0.15 80 999.2
20260505001542 62 213 4.0 10.0 0.15 0.15 0.15 84 998.6
20260505000051 62 196 3.0 11.0 0.15 0.15 0.15 84 998.1
20260504234539 65 246 7.0 18.0 0.09 0.09 0.09 77 999.8
20260504233045 71 315 4.0 20.0 0.01 0.01 0.01 61 999.2
20260504231537 74 185 6.0 13.0 0.00 0.00 0.00 54 998.1
20260504230046 74 240 8.0 19.0 0.00 0.00 0.00 52 998.1
20260504224545 74 217 13.0 28.0 0.00 0.00 0.00 50 998.2
20260504223035 79 205 9.0 20.0 0.00 0.00 0.00 42 998.1
20260504221535 80 228 8.0 18.0 0.00 0.00 0.00 39 998.1
20260504220034 80 241 7.0 19.0 0.00 0.00 0.00 39 998.5
20260504214541 80 192 9.0 22.0 0.00 0.00 0.00 39 998.5
20260504213034 79 219 9.0 22.0 0.00 0.00 0.00 39 998.7
20260504211531 79 248 7.0 19.0 0.00 0.00 0.00 38 998.7
20260504210030 79 209 7.0 17.0 0.00 0.00 0.00 40 999.1
20260504204529 80 217 9.0 21.0 0.00 0.00 0.00 38 999.0
20260504203031 79 211 10.0 18.0 0.00 0.00 0.00 38 999.3
20260504201527 79 234 8.0 22.0 0.00 0.00 0.00 36 999.6
20260504200030 79 253 11.0 18.0 0.00 0.00 0.00 34 999.8
20260504194526 80 213 7.0 21.0 0.00 0.00 0.00 35 999.8
20260504193025 79 237 13.0 22.0 0.00 0.00 0.00 36 1000.1
20260504191523 78 209 12.0 26.0 0.00 0.00 0.00 34 1000.4
20260504190023 79 276 7.0 21.0 0.00 0.00 0.00 34 1000.3
20260504184528 77 256 8.0 18.0 0.00 0.00 0.00 37 1000.4
20260504183025 77 211 7.0 22.0 0.00 0.00 0.00 39 1000.7
20260504181517 76 267 9.0 16.0 0.00 0.00 0.00 37 1000.8
20260504180017 76 200 7.0 16.0 0.00 0.00 0.00 40 1001.0
20260504174511 76 194 9.0 18.0 0.00 0.00 0.00 40 1001.2
20260504173009 75 218 5.0 20.0 0.00 0.00 0.00 45 1001.3
20260504171507 74 222 6.0 21.0 0.00 0.00 0.00 46 1001.6
20260504170106 73 223 7.0 16.0 0.00 0.00 0.00 45 1001.7
20260504160105 72 200 6.0 20.0 0.00 0.00 0.00 43 1002.7
20260504081600 55 186 3.0 5.0 0.00 0.00 0.00 73 1004.9
20260504044531 59 207 5.0 11.0 0.00 0.00 0.00 65 1006.6
20260504043044 60 189 4.0 11.0 0.00 0.00 0.00 64 1006.6
20260504041535 60 190 4.0 10.0 0.00 0.00 0.00 63 1006.6
20260504040031 60 192 5.0 10.0 0.00 0.00 0.00 62 1006.7
20260504034530 61 202 4.0 10.0 0.00 0.00 0.00 62 1007.0
20260504033030 61 186 4.0 11.0 0.00 0.00 0.00 61 1007.2
20260504031530 62 173 5.0 11.0 0.00 0.00 0.00 60 1007.3
20260504030035 62 175 5.0 10.0 0.00 0.00 0.00 59 1007.3
20260504024529 62 199 5.0 12.0 0.00 0.00 0.00 58 1007.3
20260504023028 63 190 5.0 11.0 0.00 0.00 0.00 58 1007.3
20260504021532 63 196 3.0 10.0 0.00 0.00 0.00 57 1007.2
20260504020035 64 196 4.0 10.0 0.00 0.00 0.00 55 1007.2